Theta_e
318 317 314 315 313 314 313 313 312 312 311 309 311 309 306 306 306 304 302 297 293 293 294 294 293 292 293 292 293 292 292 292 293 294 295 295 297 304 314 318 321 322 323 325 326 326 324 324 324 324 324 324 322 322 322 322 321 323 321 320 319 318 318 318 318 318 318 318 318 319 319 320 321 323 324 324 325 326 327 328 329 329 329 329 330
317 315 315 314 313 313 313 312 312 311 311 311 309 309 307 303 304 304 302 297 293 294 294 293 293 293 292 293 292 293 292 291 292 294 295 295 295 299 312 315 320 322 322 323 325 325 326 324 323 324 324 323 323 322 322 322 322 320 320 320 319 317 317 317 317 317 316 316 317 318 318 319 319 320 321 322 323 325 325 326 326 326 326 327 327
317 316 315 314 313 313 313 311 311 311 311 311 308 309 306 306 304 303 302 297 295 293 293 294 293 293 292 292 292 291 292 291 292 293 295 294 295 297 302 313 317 320 323 322 324 324 325 325 324 323 323 322 323 322 322 323 322 321 320 320 320 318 317 316 317 316 316 316 316 317 318 318 319 319 320 320 320 321 322 322 323 323 324 324 324
318 316 316 314 313 313 312 311 312 310 310 310 307 307 306 304 301 301 298 296 295 293 292 293 292 294 291 291 290 291 291 291 291 292 294 295 295 296 297 302 311 316 318 323 323 324 324 324 325 323 323 323 323 323 321 322 323 322 321 321 320 318 318 317 316 317 316 317 317 317 318 318 318 318 319 319 319 319 318 319 320 319 320 321 321
317 316 314 314 313 312 311 311 311 311 310 308 306 304 303 299 297 296 294 293 292 292 292 291 293 292 291 291 290 290 290 290 290 291 294 295 295 295 296 298 298 307 312 316 320 323 323 325 325 323 323 322 323 323 322 321 321 321 320 320 320 319 317 316 316 316 316 317 317 317 317 317 317 317 317 318 318 318 318 318 318 317 317 318 319
317 314 315 313 312 312 312 311 310 309 309 307 306 302 301 299 297 295 296 294 293 292 291 290 291 290 291 289 289 291 290 290 290 292 293 295 295 294 295 295 295 297 298 309 313 319 322 322 322 323 323 322 323 323 323 322 320 319 319 320 320 319 318 317 316 316 316 316 316 316 316 316 317 317 317 317 316 316 316 317 317 317 317 317 317
316 316 314 313 312 311 310 311 309 308 308 306 306 301 301 299 295 295 292 292 292 292 292 291 291 291 292 291 291 290 289 292 290 290 291 292 294 295 296 295 294 295 296 295 303 309 317 320 322 322 323 323 321 321 323 321 320 319 319 320 319 319 318 317 317 316 316 315 315 315 315 315 315 316 316 316 315 316 315 315 316 316 316 316 315
315 315 315 313 312 311 311 309 308 307 307 304 304 301 298 298 295 295 292 291 290 290 290 290 290 291 290 290 290 291 289 290 291 292 292 291 294 297 298 296 296 296 298 295 296 302 311 315 318 319 320 321 322 322 321 321 320 319 319 319 319 319 319 318 317 316 315 315 314 314 314 315 315 315 315 315 315 315 315 315 314 315 315 315 315
314 314 315 313 311 311 309 308 307 307 305 303 303 301 298 298 293 293 293 292 290 288 288 289 290 290 289 288 289 290 290 290 291 292 291 290 291 294 296 296 296 301 296 295 294 295 305 311 313 314 315 317 319 321 323 321 321 320 319 319 319 318 318 317 317 316 315 314 313 313 314 314 314 315 314 314 313 314 314 314 314 313 313 313 314
313 313 314 313 312 311 308 307 305 305 304 301 302 298 297 297 295 292 292 292 290 289 289 288 289 289 288 287 288 288 288 289 290 293 290 291 290 291 294 295 296 295 294 293 294 294 297 305 310 310 308 312 317 319 320 321 321 320 319 319 319 319 318 316 316 316 315 314 313 313 313 313 313 314 314 313 313 313 313 313 313 313 313 313 313
311 311 313 311 310 309 308 305 304 304 302 300 298 295 295 295 296 293 290 290 290 290 289 289 289 288 288 287 287 287 287 287 289 289 289 291 291 292 290 291 293 292 293 292 292 292 294 294 294 293 295 308 314 317 317 319 319 320 319 319 319 319 318 317 316 315 314 313 313 313 313 313 313 313 313 313 312 312 312 312 312 313 312 313 313
311 310 310 309 309 308 308 304 303 303 301 299 296 294 295 294 293 293 291 289 289 287 287 288 286 287 287 287 286 286 287 288 288 289 290 289 290 290 290 288 288 289 291 292 292 292 292 292 293 292 292 299 308 311 313 315 314 317 320 321 320 319 318 316 316 315 314 314 313 313 313 313 312 312 312 312 312 312 312 312 312 312 312 313 313
310 310 310 308 309 306 306 304 303 303 302 302 300 297 296 296 294 292 291 289 288 286 287 288 287 287 286 285 286 285 288 289 287 288 289 289 288 290 290 290 288 288 289 290 290 290 291 291 291 290 291 290 295 304 306 309 310 312 316 319 321 321 318 317 316 315 314 313 313 313 313 312 312 312 311 311 311 311 311 311 312 312 312 312 312
305 306 306 306 304 304 304 305 303 302 302 301 299 297 295 293 292 290 289 291 289 287 289 289 286 285 284 284 284 286 287 287 287 288 288 288 289 290 290 290 289 288 288 288 289 289 290 290 289 290 290 290 291 292 293 297 301 308 313 317 320 321 319 317 317 315 314 313 313 313 313 312 312 312 311 311 311 311 311 311 311 311 311 311 312
305 305 306 305 305 304 303 303 302 301 300 299 298 296 294 293 291 293 289 287 287 287 288 290 286 283 282 283 282 283 285 286 287 288 288 288 288 289 290 289 290 289 288 287 288 288 288 288 288 289 289 289 289 289 290 295 294 300 306 311 315 320 323 318 317 316 315 314 313 313 312 312 312 312 312 311 311 311 311 311 311 311 311 311 311
305 305 305 305 304 304 301 301 301 300 301 301 298 298 294 293 292 292 291 289 287 288 289 289 285 286 283 285 280 281 280 283 285 285 287 288 288 289 288 290 289 288 287 288 287 287 288 288 287 288 289 288 288 287 288 289 294 298 299 302 306 311 317 321 317 316 316 315 313 313 313 313 312 312 312 311 311 311 311 311 311 311 311 311 311
300 300 300 301 301 301 300 299 300 299 299 299 299 298 297 296 294 293 292 293 290 286 287 289 287 288 286 280 281 282 280 279 280 282 282 285 287 288 288 289 288 288 288 288 287 287 287 287 287 287 288 287 287 286 287 288 290 292 295 295 297 304 310 318 321 317 316 315 314 313 313 312 312 312 312 311 311 311 311 311 310 310 311 311 311
297 297 297 297 298 297 297 297 297 298 298 299 299 298 296 295 294 294 292 292 294 289 287 287 289 288 286 284 283 281 281 279 283 281 280 284 284 285 287 288 287 287 287 287 287 287 287 287 287 287 287 287 287 287 287 288 290 290 291 294 302 304 306 311 317 321 317 316 316 315 313 313 312 312 312 312 311 311 311 310 310 310 310 310 310
297 296 296 296 295 294 294 294 294 296 297 297 297 297 297 296 295 293 293 293 291 291 289 289 287 288 288 287 285 284 281 283 282 282 281 281 282 283 285 285 286 286 287 287 287 286 287 287 287 287 287 287 287 287 287 288 292 293 298 300 305 307 308 309 311 316 320 317 316 315 314 313 313 312 312 312 311 311 310 310 310 310 310 310 310
296 296 295 296 295 296 293 292 293 292 293 295 296 297 297 296 295 294 294 293 292 291 291 289 288 288 289 289 288 285 283 284 281 283 282 281 281 282 282 284 284 285 287 287 287 287 287 286 287 286 287 287 287 287 287 287 289 291 294 301 304 307 309 310 310 311 314 317 316 315 315 314 313 312 312 311 311 311 310 310 309 310 310 310 310
293 293 293 293 294 294 293 293 292 292 290 291 293 294 294 294 294 293 293 293 292 292 291 291 289 289 287 286 287 287 286 285 283 282 283 281 283 281 282 282 283 284 286 287 287 287 287 287 287 287 287 287 287 287 287 287 288 289 293 299 304 307 309 310 310 310 311 313 314 314 315 314 313 312 311 311 310 310 310 310 309 310 310 309 309
291 291 291 291 292 293 293 293 292 291 290 289 288 290 291 292 293 294 294 293 293 292 291 291 291 290 290 290 287 284 284 285 283 284 284 283 285 283 280 282 282 284 286 286 287 287 286 286 286 286 286 287 287 287 287 287 288 289 291 297 301 305 307 309 310 311 311 312 313 313 313 313 313 313 313 312 311 310 310 310 309 309 310 310 310
290 290 290 290 290 291 291 292 291 291 291 290 290 290 290 289 290 290 291 292 292 292 291 291 291 289 289 289 288 287 287 285 284 284 285 284 282 283 282 281 283 284 282 285 287 287 286 285 286 286 287 287 287 286 287 287 289 291 293 296 299 302 305 308 310 311 311 312 312 312 312 311 311 312 313 313 311 311 310 310 310 309 310 310 310
288 288 288 289 289 289 290 291 291 292 292 291 291 290 290 288 288 287 288 288 289 290 291 290 290 290 289 289 289 289 287 286 286 286 285 285 285 285 284 281 282 282 283 281 282 285 286 286 286 286 287 286 286 287 287 287 288 292 292 294 298 301 304 308 310 310 310 311 311 311 311 310 310 310 311 312 312 311 311 310 310 309 309 309 309
286 286 287 287 287 288 288 289 289 290 290 290 291 290 290 290 289 288 287 286 287 287 287 288 289 289 289 289 288 288 288 288 287 286 286 286 285 285 284 281 285 281 281 282 283 282 285 286 286 286 286 286 287 286 286 287 287 290 293 292 297 300 301 304 308 309 308 309 310 310 310 310 310 310 310 311 311 311 311 311 310 309 309 310 309
285 285 286 286 287 287 287 287 288 288 288 289 289 289 289 289 289 289 288 288 286 286 286 286 286 286 286 285 285 286 286 286 286 286 285 285 284 284 285 283 281 283 281 279 280 283 282 284 286 287 286 286 286 286 286 287 287 290 292 291 293 298 300 303 306 308 308 308 308 308 308 308 309 308 308 310 310 310 311 311 311 310 310 310 310
284 284 285 285 285 286 286 286 286 286 287 287 288 288 288 288 288 288 287 287 286 285 285 285 286 286 285 285 285 284 284 284 285 285 286 286 286 285 284 284 284 283 282 282 280 281 284 281 285 285 286 286 286 286 286 286 288 290 291 291 290 294 299 301 305 308 307 307 306 306 306 305 305 306 306 307 308 309 309 310 311 311 310 310 310
285 285 284 284 285 285 285 285 286 286 285 286 286 286 286 286 286 287 287 288 287 286 286 285 284 284 284 285 284 284 284 284 284 285 285 285 285 286 284 284 282 282 283 283 282 282 282 284 282 284 285 286 286 286 288 288 287 290 290 289 290 291 296 300 303 306 307 306 306 305 304 304 304 304 304 304 305 306 306 307 308 308 307 307 307
285 286 285 285 285 285 285 285 285 286 285 285 285 285 285 285 285 285 286 286 286 286 286 285 285 284 284 284 284 285 284 284 283 283 283 283 284 284 285 285 285 282 282 282 283 282 280 283 284 283 285 286 286 286 286 286 288 288 287 289 289 290 293 298 302 304 306 307 305 304 303 303 303 302 303 303 303 303 304 305 305 306 306 306 306
285 286 285 284 285 285 284 284 284 285 285 285 284 284 285 285 285 285 285 284 285 286 286 285 285 285 284 284 284 284 284 283 283 283 283 283 282 283 283 284 284 284 283 282 283 284 281 281 284 284 282 284 286 286 286 286 289 289 286 288 289 289 293 296 300 302 304 307 305 303 304 302 302 301 301 302 302 302 303 304 304 305 306 306 306
284 284 284 283 284 284 284 284 284 284 284 284 284 284 284 284 285 285 285 286 285 285 286 286 286 285 285 284 284 284 284 284 283 283 283 283 283 282 282 282 282 283 283 283 281 284 284 283 282 284 283 283 285 285 286 286 287 288 287 286 288 291 292 293 296 300 303 304 304 303 303 302 302 301 300 300 302 302 302 303 303 304 304 305 306
282 282 283 283 283 283 283 283 283 284 284 284 284 284 284 284 284 284 285 285 285 285 286 286 286 286 285 284 285 285 285 284 283 283 283 282 283 282 282 282 282 282 282 282 281 282 282 283 282 283 284 284 283 284 284 285 286 289 286 286 287 290 290 289 293 297 300 302 302 303 302 302 302 301 299 300 301 301 301 301 303 303 303 304 304
282 282 281 282 282 282 282 283 283 283 283 283 283 283 283 283 283 283 284 284 284 285 285 285 286 286 285 285 285 285 285 284 284 284 283 283 282 282 282 282 282 282 281 281 281 282 283 281 282 282 282 283 282 282 283 284 284 284 287 286 286 287 287 288 289 292 296 299 301 301 301 301 301 301 300 299 299 300 300 300 301 302 302 302 303
281 282 281 281 281 280 281 282 282 282 282 282 282 283 282 282 282 284 284 283 283 283 284 284 285 286 286 285 285 285 286 285 285 284 284 284 283 282 282 281 282 282 282 282 282 282 282 283 282 280 280 281 283 281 283 283 283 283 284 285 285 286 286 287 287 288 293 296 298 300 301 300 301 301 300 299 299 299 300 300 300 300 301 301 300
281 281 281 281 281 281 280 281 281 281 282 282 282 282 282 282 282 282 283 283 282 282 282 283 284 285 285 285 285 286 286 285 285 285 285 284 284 283 283 282 282 282 282 282 282 282 282 283 283 283 281 280 281 282 282 284 284 284 283 284 285 285 286 286 286 286 291 295 297 299 300 300 300 300 300 299 298 299 299 299 299 299 299 300 300
281 281 281 281 280 280 280 280 281 281 281 281 281 281 281 281 281 281 282 282 282 282 282 282 283 283 283 284 284 285 285 285 285 285 285 285 285 284 284 284 283 283 283 282 282 282 282 282 282 281 282 281 281 281 282 283 283 283 283 283 283 284 284 285 285 285 288 293 296 297 299 299 299 299 299 299 298 298 298 298 298 299 299 298 298
279 280 280 280 280 280 280 280 280 281 281 281 280 281 281 281 281 281 281 281 282 282 282 282 283 283 283 283 284 284 284 284 284 284 285 284 285 285 284 285 284 284 284 283 283 282 281 281 282 281 281 281 281 280 281 281 281 281 281 282 283 283 283 283 284 285 287 290 293 295 296 297 298 298 298 298 298 298 298 298 298 298 298 298 297
279 279 279 279 280 279 280 280 280 280 280 280 280 280 280 281 281 281 281 281 281 281 281 282 282 283 283 283 283 283 283 283 283 283 284 284 284 284 284 285 285 285 284 284 283 283 282 282 282 282 280 280 280 280 280 281 281 280 280 281 280 281 281 281 282 283 284 284 286 289 292 295 296 297 298 298 298 298 298 297 297 298 297 297 297
278 278 279 279 279 279 279 279 279 280 280 280 280 280 280 280 280 280 280 280 280 280 281 281 281 282 282 283 283 283 283 283 283 283 283 283 284 284 284 284 285 284 284 284 284 283 283 282 282 282 282 280 280 281 280 280 281 282 281 280 279 281 280 281 281 282 282 283 285 288 289 291 292 294 296 297 297 297 297 297 297 297 296 296 296
277 277 277 278 278 278 279 279 279 279 279 279 279 280 280 280 280 279 279 279 279 279 280 280 281 281 281 282 282 282 283 283 283 283 283 283 283 283 284 284 284 283 283 283 283 283 283 283 282 282 282 281 278 279 279 278 279 279 280 280 280 280 280 281 282 282 281 281 281 282 287 290 292 293 294 295 296 296 296 296 296 296 295 296 296
276 276 276 276 276 276 277 277 278 278 278 278 279 279 279 279 280 280 280 280 280 279 279 280 280 281 281 281 281 282 282 284 285 285 285 285 283 282 283 283 282 282 282 283 283 283 283 283 282 283 282 281 280 279 278 278 279 280 280 281 280 282 281 280 280 282 282 280 280 281 281 284 285 286 288 288 290 293 294 295 294 294 294 296 296
273 274 274 274 275 274 275 275 276 276 277 277 279 281 281 280 279 280 280 280 280 279 279 280 280 281 281 281 281 283 284 284 284 285 286 287 287 286 284 283 282 282 282 281 281 282 282 281 282 282 282 281 282 280 279 280 280 281 280 280 280 280 279 280 280 280 281 280 279 279 280 282 283 284 285 285 287 289 290 291 292 292 293 295 296
271 271 272 272 272 273 273 273 273 274 274 275 278 280 281 282 280 278 278 278 279 279 279 278 278 279 280 281 281 282 282 283 283 285 286 287 287 287 288 288 286 284 282 281 281 282 281 281 281 282 281 281 282 283 281 280 280 280 281 281 280 281 279 278 278 280 281 281 279 278 279 280 282 282 283 284 285 285 287 288 293 294 294 295 295
269 269 269 269 270 270 270 270 270 270 271 274 276 277 278 279 279 277 277 277 278 278 278 278 278 278 279 279 280 281 281 281 281 281 282 285 286 287 287 287 288 289 288 285 282 281 281 281 281 281 281 281 282 283 281 280 280 280 280 281 280 280 280 279 280 280 279 282 279 279 279 281 281 281 281 282 283 284 285 289 292 294 295 295 295
267 266 267 266 266 267 267 267 267 268 268 271 274 275 276 277 278 277 276 276 276 276 276 277 277 277 278 278 278 279 280 282 282 281 281 281 283 285 286 286 287 288 289 290 289 286 284 282 281 281 282 282 282 282 283 281 281 280 280 280 280 280 281 280 280 281 279 281 280 279 278 280 280 279 279 282 283 283 284 289 291 293 294 294 295
264 264 264 264 264 264 265 265 265 265 265 268 273 274 275 276 276 276 274 274 275 275 276 276 276 276 276 277 277 277 279 279 280 280 280 280 280 280 280 281 282 283 286 287 288 288 288 285 283 282 283 284 283 283 284 283 281 280 280 280 281 280 280 280 281 282 280 281 279 279 278 279 279 279 278 280 282 282 283 286 290 292 293 294 294
263 262 262 262 263 263 263 263 263 263 264 270 272 273 273 274 274 274 271 271 271 272 273 274 275 276 276 276 276 276 277 277 278 279 279 279 279 279 279 279 280 281 281 282 283 284 285 286 286 285 285 285 285 285 285 282 283 282 282 282 282 282 282 282 282 281 279 280 280 280 278 281 279 278 278 280 281 281 282 285 289 290 292 293 294
262 262 262 262 261 261 262 262 262 262 263 269 270 271 272 273 274 270 269 269 269 269 270 271 272 273 274 275 275 276 276 276 279 281 281 279 279 278 278 279 279 280 280 283 285 286 284 284 284 285 285 286 288 286 286 285 283 283 283 283 283 282 281 280 279 280 280 279 280 279 279 280 279 278 278 280 280 279 281 281 286 289 291 292 293
261 260 260 261 261 261 261 261 261 261 261 265 269 270 271 272 271 268 268 268 268 268 269 270 270 271 272 273 273 274 274 275 278 281 282 282 279 279 280 280 280 280 280 281 285 286 287 288 288 289 289 289 290 291 291 291 287 284 282 280 280 281 279 278 279 279 279 279 279 280 279 279 279 278 278 278 278 279 279 280 280 286 289 291 292
259 259 260 260 260 260 260 260 260 260 261 264 268 269 270 271 271 268 267 267 267 267 268 269 270 271 272 274 274 273 273 274 277 279 280 278 276 276 276 276 276 278 279 281 281 282 285 287 288 288 288 289 289 290 291 291 291 289 283 280 281 281 279 279 278 279 280 280 278 280 278 278 280 277 277 276 277 278 279 279 280 281 286 288 291
259 259 259 259 259 259 259 260 262 261 260 262 267 268 270 271 269 268 267 267 266 266 267 267 269 269 270 272 274 274 274 275 278 279 280 279 276 277 277 277 276 276 278 279 280 279 280 280 281 283 284 286 286 286 286 289 290 289 287 284 283 282 279 279 279 279 279 279 280 281 278 277 280 277 278 274 274 275 278 279 279 279 280 283 285
Wind_Speed
7 6 5 6 5 5 5 6 5 5 5 4 6 6 5 5 6 6 5 4 3 3 3 4 3 3 4 4 3 2 2 1 2 2 1 1 1 1 0 1 2 3 4 5 8 8 8 7 8 6 8 8 6 6 7 6 4 8 6 4 3 1 2 2 2 2 3 2 3 3 3 3 3 3 2 2 3 3 5 5 6 6 6 6 7
6 5 7 6 5 5 5 5 6 5 6 6 5 6 6 5 5 5 5 4 3 3 3 4 4 4 4 4 4 4 3 3 3 3 2 1 1 0 1 1 3 2 2 3 6 8 9 9 8 8 8 6 8 8 6 7 7 6 5 5 4 2 2 3 3 3 1 2 3 3 3 4 4 2 3 3 3 4 4 5 4 5 5 5 5
7 7 6 6 6 6 6 5 6 6 6 6 5 6 5 6 6 6 6 5 5 4 4 5 5 4 4 4 5 3 3 2 2 2 2 2 1 0 0 3 3 4 4 1 3 5 9 9 9 6 7 7 7 8 8 11 8 7 5 6 7 4 3 3 4 3 3 3 3 4 4 4 4 4 4 2 2 2 2 2 4 3 3 4 5
7 7 7 7 6 6 6 6 6 5 6 6 6 5 6 5 5 5 5 4 5 4 4 5 5 5 4 4 3 3 4 3 3 3 3 2 2 1 0 1 4 4 6 6 3 4 4 4 8 9 9 8 9 9 9 10 11 10 9 7 6 5 5 4 4 5 5 5 5 4 5 6 4 4 3 4 3 2 1 3 4 1 1 2 2
6 7 7 7 7 7 6 6 6 6 5 5 6 5 4 4 4 3 4 4 4 4 3 4 5 5 4 4 4 4 4 3 3 3 4 4 3 2 1 1 1 4 5 5 7 5 4 6 7 9 9 8 9 9 10 10 8 9 8 8 8 7 5 4 5 5 6 7 7 6 6 7 6 5 5 4 4 4 3 2 1 2 2 2 2
6 6 6 6 6 7 7 6 5 5 5 5 6 5 6 5 5 5 5 5 6 5 5 5 4 3 4 4 4 5 4 4 4 5 4 4 4 3 3 2 2 1 1 4 5 6 5 4 4 5 3 2 5 10 11 10 9 5 6 8 8 8 8 7 6 6 6 6 6 6 6 6 7 6 6 6 4 4 3 3 3 3 3 3 3
6 7 7 6 6 6 6 6 6 5 6 5 6 5 5 6 5 6 4 5 5 5 6 6 5 6 6 5 6 5 4 6 4 4 4 4 4 4 4 4 3 3 2 1 2 3 4 4 4 3 3 3 3 6 10 10 9 7 7 7 7 8 9 7 7 7 5 5 6 6 6 6 6 7 7 7 6 5 5 5 5 4 3 2 1
7 7 7 7 7 7 7 6 6 6 6 5 5 6 5 4 4 5 5 5 4 5 4 5 5 6 5 5 6 5 7 6 6 5 5 5 5 5 5 5 4 4 4 3 2 1 2 2 2 2 3 4 4 5 7 8 9 9 9 8 8 8 10 8 9 7 6 6 5 6 6 6 7 7 7 7 7 7 5 5 4 2 2 2 2
7 7 7 7 7 7 6 6 6 6 6 6 6 6 6 5 4 4 5 6 5 5 4 4 5 5 4 5 5 4 5 6 5 5 3 4 5 5 5 5 4 5 4 4 3 3 3 2 1 1 1 1 2 2 5 6 11 10 10 9 8 8 8 9 9 8 7 6 5 6 7 8 7 8 7 7 7 7 7 6 5 5 4 4 4
6 7 7 7 7 7 6 6 6 6 6 6 7 5 5 6 7 5 6 5 6 6 6 4 3 4 4 4 4 3 4 4 4 3 4 5 5 4 6 6 5 4 4 3 3 3 3 3 3 2 1 1 1 0 1 3 3 10 10 9 9 9 9 9 10 10 9 8 7 7 8 8 8 8 8 7 7 7 7 7 7 7 6 6 5
4 5 6 6 6 6 6 6 6 6 6 6 4 4 4 5 7 7 4 5 5 6 5 4 3 3 3 4 3 4 3 3 3 4 5 5 5 4 3 6 4 4 4 4 3 3 3 2 2 2 2 3 3 2 1 2 2 3 9 11 11 11 10 11 11 10 8 8 9 8 8 8 9 9 8 8 8 8 8 8 8 8 8 7 7
4 3 3 4 4 5 6 5 6 6 7 6 6 6 9 7 7 7 6 3 1 3 3 4 1 0 2 3 3 3 4 4 4 5 5 5 5 3 5 4 4 4 5 5 5 4 4 4 3 3 3 4 4 3 3 3 3 4 4 6 10 13 13 13 11 12 10 9 10 9 9 9 9 9 9 8 9 8 8 8 8 8 8 7 8
2 3 5 5 4 3 3 3 4 6 6 8 9 10 8 8 7 4 7 5 4 3 4 4 4 1 2 3 5 3 3 2 4 5 6 7 5 7 6 5 5 5 6 5 5 5 4 4 4 4 4 3 4 5 4 5 4 6 7 7 8 12 15 14 14 13 12 12 11 11 11 10 10 10 11 10 9 9 9 8 9 8 7 7 6
4 4 2 1 1 2 3 4 5 5 5 3 3 3 4 4 4 4 3 7 6 6 5 7 1 5 3 3 4 6 5 4 5 7 6 5 5 6 5 6 7 6 4 6 6 6 6 6 5 5 5 5 4 6 4 4 4 6 8 9 10 12 15 15 15 14 13 14 13 12 12 12 11 11 11 11 11 10 10 9 9 9 8 7 7
5 5 3 2 1 0 1 1 1 1 2 3 3 4 5 6 6 7 5 1 3 2 6 8 6 2 2 1 4 2 4 5 6 7 5 5 5 6 6 6 8 6 6 5 6 5 5 5 6 6 6 6 6 5 5 5 5 7 8 9 10 12 14 17 17 16 15 14 14 13 13 13 13 12 12 12 11 11 11 10 9 9 8 8 8
6 6 5 5 3 2 2 0 1 1 2 3 3 5 4 3 4 6 4 4 3 5 6 8 5 7 3 7 3 1 7 7 9 6 7 9 8 8 5 7 6 5 4 7 7 6 6 5 6 6 6 6 6 5 6 5 7 8 9 8 9 11 14 15 18 18 16 15 15 14 13 14 13 14 13 13 12 11 11 11 10 10 10 9 8
6 6 6 5 5 4 3 1 0 0 1 2 3 5 5 5 6 6 6 7 7 4 4 6 7 6 6 2 1 2 6 5 2 6 1 5 9 8 7 7 7 7 6 8 5 6 6 6 6 6 7 6 6 6 6 6 6 5 7 9 10 11 12 15 17 19 18 17 16 16 16 15 14 14 14 13 12 12 12 12 12 11 11 10 10
5 5 5 5 5 5 4 3 2 1 1 3 3 2 3 4 5 6 7 7 7 6 5 4 8 8 5 4 3 4 1 2 1 7 2 5 4 4 7 6 4 6 7 7 8 7 5 7 6 8 7 6 6 6 6 6 6 6 7 7 11 11 12 14 17 18 20 20 19 17 17 17 15 15 14 14 14 13 13 12 12 12 12 11 11
6 6 5 5 5 4 4 3 3 2 2 2 4 4 4 4 3 4 6 6 4 6 7 6 2 6 7 8 4 2 2 0 4 2 7 1 3 5 6 5 5 5 7 8 7 6 7 7 8 7 7 7 7 7 6 7 7 8 10 11 14 15 15 15 15 18 19 21 20 18 18 18 17 16 15 15 14 13 13 13 13 13 12 12 12
10 10 10 8 7 6 4 4 4 3 2 2 3 4 3 3 2 4 4 3 4 7 7 6 7 5 7 11 9 5 3 2 3 2 3 6 6 1 3 5 4 7 8 8 8 9 9 8 8 7 7 7 7 7 7 7 7 7 8 14 16 17 17 16 15 16 18 21 22 21 19 19 18 18 16 15 15 14 14 14 14 14 13 13 13
11 11 11 11 10 8 6 5 5 4 2 3 3 4 4 4 4 3 4 5 5 6 6 6 6 7 4 6 6 10 7 6 2 2 4 5 9 5 5 1 3 7 8 9 8 8 9 8 8 8 7 8 8 8 7 7 7 7 8 14 16 18 19 19 17 17 17 18 20 21 21 20 19 19 18 17 16 15 15 15 15 14 14 14 14
10 10 11 11 10 10 8 7 5 4 4 3 4 4 4 4 4 4 4 5 4 5 7 6 6 6 7 5 5 4 5 6 5 5 5 6 13 9 4 6 7 7 9 9 12 9 7 7 7 8 8 8 8 8 7 8 8 7 9 13 16 18 19 19 19 17 17 17 16 18 21 22 21 20 19 18 17 16 16 15 16 16 15 15 15
9 9 10 10 10 9 9 8 7 6 6 5 4 4 5 4 5 4 4 5 5 5 6 6 6 6 6 6 8 7 9 7 7 7 8 8 6 8 6 7 9 9 5 6 8 8 8 7 8 9 10 9 8 7 8 9 9 9 11 13 16 17 18 18 19 14 16 16 17 17 20 20 21 21 20 19 19 17 17 17 17 17 17 16 16
8 9 10 10 9 9 9 10 9 9 9 7 7 5 5 4 4 5 5 4 4 5 5 6 6 6 7 6 7 6 7 7 6 7 7 8 7 12 8 3 5 7 6 3 3 7 9 10 10 10 10 8 8 8 9 8 9 14 12 14 16 18 20 21 20 16 14 15 17 20 20 20 20 20 20 19 19 19 18 18 18 18 18 17 17
10 9 9 8 7 9 9 8 8 8 8 8 8 8 7 6 5 5 4 5 6 5 5 6 7 7 7 7 6 6 8 6 6 7 6 6 7 10 6 3 11 6 4 3 5 3 8 9 9 10 9 9 8 8 9 8 9 12 15 11 17 17 20 21 20 19 16 15 17 20 21 21 20 20 19 19 19 20 19 19 19 19 18 18 17
8 8 8 7 7 6 6 7 7 8 8 8 8 7 7 7 6 7 6 6 4 5 6 6 6 7 6 7 7 7 7 6 7 6 7 6 8 8 9 6 5 8 3 2 2 2 4 7 10 10 9 9 9 8 8 10 10 14 17 12 12 17 18 19 21 21 19 18 18 18 19 18 19 18 18 20 20 20 20 20 20 20 20 19 19
6 6 7 8 8 8 8 7 7 7 7 7 7 7 7 7 6 6 7 6 6 5 6 6 7 7 6 7 7 7 7 6 6 7 6 8 8 8 6 12 11 8 7 4 4 9 7 4 7 8 9 9 9 9 10 9 12 15 14 11 9 17 18 22 23 24 24 21 20 20 19 18 18 19 18 19 20 20 20 20 21 21 20 20 19
5 6 6 5 7 8 8 8 7 7 6 6 6 6 6 7 7 6 7 6 6 8 7 6 7 8 7 7 6 7 7 7 6 7 7 7 7 7 6 8 10 15 9 10 6 7 5 8 3 8 8 10 10 10 12 12 9 14 15 10 10 12 17 22 24 24 24 24 22 21 20 19 19 20 20 20 20 20 20 20 21 21 20 19 19
6 6 7 7 7 7 6 7 8 7 7 6 6 6 6 6 6 6 6 6 5 7 7 7 7 7 7 7 7 7 7 5 5 6 7 6 6 7 7 9 8 11 12 11 13 8 4 9 6 5 11 10 11 9 10 10 12 13 9 10 11 11 12 21 24 24 25 26 27 23 22 21 21 21 21 21 21 21 21 20 20 19 21 21 21
4 5 5 7 7 8 7 8 7 7 6 6 6 5 5 6 6 5 4 4 4 5 6 5 7 6 7 7 6 7 6 6 6 6 6 7 7 6 7 7 7 12 11 11 16 6 5 4 8 5 5 10 9 9 9 11 14 15 10 11 11 12 15 21 22 24 24 26 26 25 24 23 23 22 22 22 22 22 22 22 21 21 22 22 23
5 6 6 6 6 6 6 7 7 8 7 7 7 6 5 6 5 6 6 5 5 6 6 5 6 6 7 8 7 7 7 7 7 6 6 6 7 7 7 6 8 9 11 10 15 8 6 8 7 7 7 8 9 9 8 9 11 14 11 11 12 15 18 16 20 21 24 25 23 24 24 25 24 23 23 23 23 23 23 23 22 22 22 22 23
5 5 6 6 7 7 6 6 7 7 7 7 7 7 7 7 6 6 6 5 5 6 7 6 5 6 7 8 9 8 8 7 7 6 6 6 6 7 7 7 8 7 7 10 14 17 3 6 5 7 9 8 7 9 9 8 9 14 10 11 13 15 11 10 17 21 22 23 23 24 24 24 24 24 24 24 24 24 24 23 23 23 22 22 23
5 6 7 8 8 8 8 8 7 7 7 8 7 6 6 7 8 7 8 7 6 6 6 8 6 6 6 7 9 9 7 8 8 8 7 6 6 6 6 7 8 6 7 9 13 17 8 5 4 6 5 6 6 7 8 8 7 8 11 11 11 10 10 10 11 19 23 23 23 24 25 24 24 24 24 24 24 24 24 24 23 23 23 24 23
5 7 8 6 5 6 7 9 9 9 8 7 7 6 7 7 8 6 7 8 9 9 6 7 8 6 6 7 9 9 7 8 8 8 8 8 6 7 7 7 8 8 7 9 12 12 17 5 7 3 3 5 9 4 9 10 10 8 10 11 9 11 11 10 11 12 23 23 23 23 24 27 25 24 24 24 24 24 24 24 24 24 24 25 26
8 7 7 8 8 8 8 8 8 8 8 9 8 7 8 8 9 8 7 8 9 9 9 10 9 8 8 8 8 8 7 8 8 8 8 8 7 8 9 7 8 9 7 9 10 14 15 12 6 8 6 4 9 8 9 10 10 9 11 11 11 10 10 11 11 9 15 22 25 25 25 25 25 25 25 25 24 24 24 25 25 25 25 24 25
8 8 8 8 8 8 9 9 9 9 10 9 9 8 9 9 9 10 9 9 9 9 9 10 9 9 10 11 9 7 7 8 9 8 8 8 8 8 9 8 8 9 8 8 11 11 11 13 8 7 5 7 8 5 6 8 9 8 9 8 6 9 8 8 10 10 11 20 23 24 25 25 25 25 26 26 25 25 25 26 25 25 25 25 24
6 7 7 5 7 7 8 10 11 11 11 10 11 11 9 8 9 10 10 9 9 10 10 10 10 10 10 11 12 9 7 9 9 8 8 9 9 9 10 9 9 9 7 8 10 10 11 14 12 6 7 7 7 4 6 7 7 7 6 9 9 9 9 8 7 7 8 16 20 22 23 24 24 25 28 29 27 26 26 26 26 25 25 26 25
8 6 7 7 7 9 9 8 9 9 10 10 11 11 11 11 10 10 10 10 10 11 11 11 11 10 11 12 11 11 9 10 10 9 8 10 9 10 11 10 9 8 9 9 9 10 11 13 11 10 6 8 6 7 6 8 8 8 8 8 5 6 7 7 8 8 7 8 9 12 18 20 22 25 27 29 30 27 27 27 26 26 25 24 24
9 10 10 11 10 9 10 10 9 10 10 10 10 11 11 10 11 12 12 11 11 10 11 12 12 11 12 12 12 11 12 11 12 11 10 10 9 11 11 11 10 10 10 10 10 11 12 12 11 10 10 7 8 10 6 8 9 10 10 8 9 8 7 10 11 8 7 9 10 14 13 12 15 17 22 27 31 30 28 27 26 26 24 23 23
9 9 9 10 10 9 11 11 11 11 11 12 11 10 9 9 10 11 12 13 14 14 13 12 12 12 13 13 12 12 13 12 12 11 10 10 9 10 10 9 9 10 10 10 10 10 11 11 12 11 9 9 6 6 0 4 6 8 7 7 10 10 10 10 11 11 9 9 10 10 11 12 12 16 17 20 27 31 29 27 27 25 25 23 24
10 11 11 11 12 12 11 10 12 11 11 11 10 9 11 13 12 12 12 12 13 14 14 14 14 13 13 13 13 12 13 16 19 18 16 13 10 11 11 9 9 10 10 9 9 10 10 11 12 10 10 9 8 7 8 8 11 14 6 8 11 10 5 6 9 10 8 9 9 8 9 10 11 11 12 13 15 22 23 24 20 26 25 24 26
10 10 11 11 11 12 13 13 12 11 11 10 12 23 21 15 14 13 13 13 13 13 14 14 15 15 15 14 13 19 21 21 20 21 21 22 21 17 13 11 10 11 10 10 10 10 10 11 12 11 11 11 11 9 10 10 9 5 6 9 12 8 5 8 9 9 9 8 7 10 11 8 10 11 11 14 13 14 12 14 14 15 21 27 27
9 9 9 11 10 10 11 12 12 11 10 12 24 25 26 27 19 15 14 14 14 15 14 14 15 15 14 15 14 15 16 17 17 21 20 23 23 24 24 23 18 14 11 12 12 11 11 11 11 11 11 13 14 10 10 9 8 10 11 9 10 8 10 10 14 5 9 11 10 7 10 9 11 14 14 14 13 12 13 14 16 22 24 27 28
10 10 10 9 10 10 11 12 12 11 11 17 24 24 26 27 24 18 15 14 13 13 13 14 13 13 15 14 14 13 13 14 14 14 17 22 23 23 24 24 24 25 22 16 13 12 11 12 13 13 11 13 13 9 7 8 8 9 10 10 11 12 11 12 12 13 5 13 10 10 15 9 10 13 13 13 12 12 13 14 19 23 26 27 29
11 12 11 12 11 10 11 11 14 12 12 19 22 24 24 24 25 22 14 14 14 14 14 15 15 14 14 14 13 11 10 19 16 14 14 14 19 23 24 25 25 25 24 26 25 18 12 13 13 15 13 12 14 11 9 7 6 12 10 11 11 11 12 12 13 11 5 12 11 12 15 12 11 13 15 14 12 11 12 17 24 26 28 29 28
10 11 10 13 11 11 11 12 12 14 14 17 23 24 23 24 24 22 15 15 16 14 14 14 14 15 14 12 12 13 11 12 12 13 14 14 14 14 14 14 14 17 21 24 26 27 23 16 14 16 15 12 14 12 9 6 9 11 10 12 11 12 12 15 13 10 6 13 15 11 11 9 11 13 15 13 10 10 12 16 24 26 28 30 30
10 10 11 11 11 11 10 12 11 15 12 21 23 24 24 25 25 22 15 15 15 16 17 17 16 14 16 15 15 15 14 12 12 16 16 16 15 15 15 15 14 14 14 15 15 14 14 14 15 17 17 16 14 14 11 8 11 11 11 12 12 12 13 12 10 9 6 10 10 10 14 11 7 9 15 13 8 11 12 14 23 26 28 28 31
8 7 9 8 11 11 10 10 12 12 13 22 24 24 25 24 26 15 12 12 13 14 14 14 15 14 13 16 15 16 15 16 21 32 28 21 19 19 19 18 16 15 15 13 17 17 16 14 14 15 15 16 15 14 13 11 9 8 7 7 6 7 9 10 13 9 11 8 11 12 10 11 8 13 13 7 7 11 12 9 18 26 27 29 31
9 9 8 8 9 10 12 10 13 12 12 17 23 24 24 25 20 12 13 13 14 14 14 13 13 14 14 15 15 19 20 18 23 28 27 25 17 17 16 16 16 15 15 13 20 24 24 24 24 22 23 23 23 22 21 20 14 9 7 8 11 8 10 12 13 11 11 8 10 12 11 12 7 10 9 4 9 11 11 11 12 20 27 28 29
11 9 8 10 8 8 11 12 10 13 13 16 24 24 25 25 21 15 12 12 14 14 15 15 14 14 16 25 23 18 18 18 25 31 32 27 21 20 21 22 21 18 16 13 12 12 20 24 26 27 28 27 27 27 24 23 24 18 11 14 11 10 12 12 15 12 8 9 9 13 10 13 5 5 5 2 4 6 9 9 10 10 20 23 28
10 8 9 11 9 8 8 12 18 18 14 16 22 23 25 24 19 13 13 12 15 14 14 14 14 13 15 16 23 21 19 21 29 28 29 24 18 16 16 16 17 19 18 17 17 15 13 12 13 15 17 21 20 18 17 25 25 21 15 14 11 12 12 13 13 10 10 11 11 15 13 10 11 5 8 3 6 5 5 7 8 10 10 11 13
Wind_Direction
175 178 157 180 173 174 172 178 170 166 157 169 159 159 158 158 161 164 169 176 194 237 213 215 202 179 175 196 199 210 197 173 172 183 205 218 245 271 297 312 306 300 296 251 205 210 194 201 212 193 184 191 164 205 198 186 190 149 143 158 142 118 133 170 155 134 144 174 165 151 151 163 160 149 141 147 131 107 98 93 90 85 85 80 80
176 167 171 180 176 178 179 178 177 170 169 171 177 162 165 162 163 165 171 181 186 220 181 188 193 181 186 178 192 200 199 182 181 192 209 241 254 286 309 330 324 315 303 310 243 215 210 201 208 204 203 188 175 199 226 196 188 209 194 167 166 164 183 189 180 160 102 169 180 164 157 154 163 173 175 153 131 118 112 100 88 85 85 79 79
173 171 179 176 178 179 188 174 179 182 176 175 168 171 165 172 172 172 177 180 203 200 189 175 188 192 194 175 198 197 213 213 188 187 196 236 254 280 335 8 358 357 360 342 343 245 224 221 210 202 195 206 200 192 203 227 186 198 198 195 159 175 174 190 179 187 182 176 164 158 157 152 157 159 152 130 184 155 161 145 123 101 89 82 70
173 174 176 176 181 184 183 180 190 180 180 170 170 166 167 171 168 170 173 175 197 199 210 175 190 202 186 197 194 197 216 207 196 194 204 214 233 261 341 10 18 18 9 7 17 24 27 338 244 215 211 212 208 198 199 227 176 211 199 197 196 185 181 181 209 194 183 184 168 158 173 156 143 142 108 140 158 94 72 39 20 291 289 185 145
182 175 176 178 180 182 185 194 186 180 178 168 161 154 145 147 166 151 159 168 182 208 205 199 187 207 193 207 180 210 217 199 205 192 197 202 209 203 177 83 44 31 25 17 13 20 30 28 344 200 209 216 226 219 217 218 243 227 211 212 203 187 159 202 184 197 187 192 182 173 179 169 160 160 165 142 145 146 147 150 162 186 179 217 217
174 180 177 176 181 187 185 190 187 179 168 157 164 163 160 162 176 161 184 181 197 201 186 205 222 205 201 199 182 204 197 207 205 200 196 199 202 193 185 162 129 106 36 28 23 21 47 46 41 50 40 337 279 250 240 223 216 233 206 220 221 200 196 186 210 209 197 188 190 184 188 184 176 170 168 165 151 147 155 159 190 177 165 156 129
181 174 181 178 178 187 191 191 176 170 171 175 163 169 165 179 165 181 188 204 203 200 196 201 196 205 208 190 195 204 197 207 208 211 202 205 186 201 197 184 172 151 134 113 43 27 32 52 52 43 30 6 324 281 256 226 213 215 218 226 225 211 205 199 199 208 199 201 194 186 198 195 185 180 177 167 171 173 173 179 176 171 153 151 160
179 175 176 182 183 187 194 174 174 165 170 166 159 171 176 175 191 173 179 220 205 226 213 205 206 211 213 199 206 192 198 208 208 212 211 180 195 201 206 200 185 176 173 161 161 116 100 69 67 50 34 14 356 329 277 220 216 214 221 227 224 219 231 196 215 204 196 202 206 203 203 199 195 189 183 182 178 180 175 172 178 150 173 173 182
177 177 174 181 184 187 183 179 165 167 167 171 178 175 169 177 188 204 191 192 204 222 231 228 217 222 215 212 215 199 204 208 214 215 199 197 206 206 205 208 200 192 183 182 177 177 158 157 147 128 32 10 356 353 353 261 220 219 217 223 226 221 216 211 219 212 202 191 194 213 209 206 205 197 198 192 196 184 178 180 179 191 197 204 198
173 175 178 181 182 179 169 168 164 163 167 170 189 167 172 171 190 202 196 175 198 205 219 225 247 242 240 234 240 231 231 227 231 229 206 225 223 213 210 209 201 203 192 192 194 193 192 193 188 179 196 260 229 275 285 348 293 220 214 219 226 225 220 215 221 217 210 190 200 207 213 212 215 215 207 201 203 201 193 190 193 193 197 198 199
163 165 168 171 173 172 169 171 165 162 161 170 164 164 172 186 189 198 201 200 191 201 194 180 221 265 262 262 279 253 271 265 251 240 226 223 222 225 232 224 205 198 196 197 204 204 211 234 232 244 259 260 265 243 267 262 309 261 223 221 226 228 221 223 224 223 212 190 194 209 216 222 219 220 218 213 212 214 211 208 202 196 192 187 190
145 150 151 163 167 176 176 163 166 160 162 166 176 176 189 190 205 186 194 208 115 160 131 137 79 318 295 302 286 277 268 240 235 231 231 230 233 226 217 225 207 200 200 199 192 202 205 216 231 238 256 265 270 280 286 300 306 283 243 240 237 227 225 225 227 226 218 206 204 208 210 219 222 221 222 221 219 218 216 216 213 211 197 192 195
113 149 167 166 178 157 153 163 163 174 178 190 189 194 194 190 183 175 178 189 226 148 164 135 136 265 346 315 301 289 276 281 257 245 234 227 221 216 220 207 217 203 205 192 192 198 206 211 222 238 251 260 275 280 279 278 297 284 271 254 259 252 231 229 227 228 225 227 215 213 215 216 217 222 220 223 222 223 222 218 220 215 214 205 207
32 29 41 69 114 141 176 182 172 192 204 204 191 192 174 173 151 175 202 186 211 179 175 129 200 209 232 299 308 290 272 282 265 253 238 239 228 224 220 217 220 216 210 194 201 198 202 205 206 215 225 230 236 242 262 268 276 278 269 262 254 254 246 233 227 226 225 230 228 217 216 219 218 220 221 220 221 221 220 220 221 220 217 219 209
40 42 51 40 44 52 326 12 236 202 175 187 179 194 193 188 180 187 199 236 218 177 175 191 187 134 118 28 285 298 303 263 255 248 239 235 231 229 222 222 223 213 206 205 213 212 213 205 207 210 218 221 225 229 230 236 237 249 261 268 274 264 265 237 229 229 230 225 232 229 224 222 220 218 220 219 220 217 219 222 221 222 222 220 222
27 32 28 32 37 40 53 54 341 348 265 231 204 215 191 193 198 214 169 195 217 228 195 203 152 136 254 210 227 162 300 263 241 246 201 219 218 229 222 225 225 225 211 214 215 213 218 205 212 213 219 219 223 226 229 231 236 242 249 257 268 268 265 269 234 229 226 226 229 233 228 224 221 222 220 218 219 219 216 215 218 216 214 218 218
28 25 29 24 28 29 34 55 108 271 275 267 243 233 220 216 205 199 193 201 223 220 221 204 215 219 163 99 310 266 231 253 349 278 221 214 232 228 225 226 221 216 214 230 221 219 212 213 216 215 219 217 221 221 224 230 232 233 240 246 250 257 267 263 261 236 230 229 222 229 231 225 221 224 221 220 219 219 219 216 216 216 212 211 213
34 33 35 30 22 29 31 24 9 356 242 257 284 289 254 240 218 210 217 227 221 204 234 234 222 229 224 214 146 178 243 274 65 280 320 239 265 233 230 232 227 222 229 232 224 224 213 221 214 219 215 219 220 220 218 223 221 223 226 235 234 243 249 257 259 258 228 228 220 219 229 227 221 220 221 220 218 220 223 219 217 215 214 212 210
10 24 21 26 26 27 36 33 14 357 334 317 289 261 250 235 231 221 229 226 215 230 220 229 231 254 248 247 239 180 151 36 256 331 317 319 256 244 250 240 236 238 237 236 235 229 229 221 220 218 217 218 220 219 217 220 216 215 219 223 231 234 240 246 255 260 256 233 220 212 224 228 224 220 220 220 219 220 225 225 220 217 216 214 213
10 5 7 7 8 10 26 30 18 2 360 306 290 296 300 292 247 244 252 251 227 234 238 218 212 234 217 242 251 230 174 160 164 224 249 290 303 316 261 249 244 241 237 240 231 225 227 222 224 220 221 222 219 219 217 214 217 218 222 224 227 232 234 239 244 251 259 259 231 220 219 223 224 224 224 221 220 220 223 225 224 220 218 216 215
22 19 16 9 2 355 356 2 7 4 8 329 317 323 310 302 294 268 243 242 226 235 243 240 222 238 232 247 242 250 249 234 194 157 238 280 273 247 272 309 239 249 245 235 238 230 225 221 217 218 218 223 216 219 218 215 217 219 220 222 226 229 231 232 236 241 248 253 232 223 220 222 224 225 225 225 224 225 225 224 225 223 219 219 218
13 20 18 11 7 1 355 354 355 359 10 335 327 329 317 306 286 274 269 261 251 239 239 251 243 245 232 241 231 250 264 276 251 244 253 208 257 267 234 244 258 248 234 233 232 229 225 224 222 222 224 224 218 217 216 218 219 216 223 220 225 229 231 231 231 233 239 233 222 223 221 221 223 225 225 225 222 221 224 225 225 223 221 219 218
11 13 16 10 8 11 8 356 349 352 349 359 342 326 314 313 305 307 290 269 265 258 254 256 259 256 245 234 240 220 233 229 238 229 232 252 270 264 262 228 236 267 259 241 236 226 221 217 221 224 223 223 220 214 216 221 219 220 215 219 225 227 231 232 228 223 227 218 212 212 218 220 222 226 226 223 224 220 220 223 225 222 220 219 219
16 13 10 5 8 8 10 12 10 3 355 344 342 340 329 327 316 306 295 289 290 284 272 264 256 255 251 242 243 237 241 240 234 226 225 244 236 262 261 281 280 236 268 294 257 231 221 220 224 226 224 223 218 213 219 219 222 222 219 222 223 226 228 229 226 216 214 209 205 209 214 217 220 223 224 224 222 222 224 222 224 224 221 220 220
8 11 8 4 7 13 11 13 8 4 358 360 347 344 343 337 327 316 301 290 280 276 271 260 254 253 253 248 245 242 244 240 235 239 243 243 238 264 256 205 259 277 277 248 260 249 222 229 225 226 226 221 223 215 217 216 220 220 217 223 223 226 228 230 227 218 210 206 205 205 207 209 212 216 219 221 223 224 222 221 222 224 221 219 219
1 4 352 358 13 15 15 15 13 8 5 359 357 348 346 342 333 328 318 302 299 280 271 271 271 264 266 268 258 245 246 236 235 230 239 242 251 245 268 261 223 263 275 279 275 258 271 229 224 225 221 221 223 218 215 219 222 220 215 216 222 226 226 228 229 222 212 208 204 203 204 207 208 210 214 219 222 222 223 223 221 222 223 221 220
3 345 353 4 4 7 13 17 11 9 7 3 357 351 349 347 342 328 322 316 312 301 285 279 278 275 269 255 260 257 249 244 237 238 225 232 241 243 236 270 274 251 263 246 271 221 238 273 222 226 221 222 223 220 220 219 222 218 212 215 221 224 225 226 228 226 221 213 210 208 207 206 208 210 211 218 223 222 224 226 225 224 223 221 220
351 356 356 6 8 5 3 5 3 8 8 5 1 357 350 349 339 339 328 323 324 316 301 297 285 278 274 276 273 263 250 246 241 240 236 232 231 241 228 244 261 278 265 269 243 257 203 236 280 223 214 219 223 220 223 222 224 219 209 210 217 222 224 225 226 226 224 222 215 212 211 210 208 212 213 215 220 223 225 227 228 227 225 223 219
354 353 354 359 5 7 1 356 356 355 357 2 358 356 353 347 340 333 325 322 324 308 306 300 288 286 284 274 268 273 268 251 246 248 247 247 238 233 221 233 237 256 271 273 265 258 253 212 228 243 205 216 220 219 220 217 221 213 206 210 216 219 219 223 225 225 226 224 225 217 214 213 212 212 213 215 217 220 223 225 229 232 227 223 221
345 338 346 353 353 360 358 351 349 348 348 345 352 347 352 343 334 324 309 315 313 306 297 291 288 285 280 283 274 272 269 264 247 241 245 243 244 236 233 234 224 244 256 266 273 224 258 241 223 237 216 222 219 222 213 220 220 212 210 211 215 219 215 218 221 223 226 225 226 223 217 216 214 212 211 214 215 217 221 223 223 227 228 224 219
336 340 343 344 348 347 352 342 341 341 339 342 343 341 342 333 329 321 318 329 324 311 300 300 292 294 290 288 285 275 270 267 260 248 241 244 245 241 244 231 237 236 250 257 272 262 178 237 237 240 230 224 216 221 218 221 220 212 211 213 218 221 217 219 220 222 224 225 225 223 221 218 214 211 211 212 214 215 218 221 223 222 225 225 221
332 336 340 343 343 344 341 336 331 331 329 330 335 334 334 327 323 321 312 320 313 305 304 301 292 290 289 288 284 282 281 278 276 265 252 237 237 244 239 236 242 234 239 250 254 266 181 236 220 234 228 233 218 219 222 225 224 215 213 215 221 222 220 221 221 222 222 224 224 224 221 218 216 214 212 212 213 215 216 219 221 221 221 222 222
322 330 336 336 337 338 334 331 328 322 322 320 324 324 323 317 317 316 315 315 307 297 295 296 292 285 280 279 281 279 279 278 275 275 271 251 241 240 240 241 245 235 227 245 257 270 266 245 239 230 238 227 257 212 226 225 224 221 217 220 218 216 216 215 219 222 222 223 224 224 224 221 217 215 213 213 213 215 215 217 219 220 219 218 220
332 325 327 326 324 325 325 322 323 321 317 312 312 311 307 307 304 305 308 310 310 306 301 293 289 285 276 278 280 279 273 269 274 275 269 271 256 248 242 232 242 243 218 238 257 263 272 255 272 239 265 192 240 189 213 219 226 216 220 220 217 214 214 215 216 220 221 222 221 222 223 225 220 218 215 213 214 214 215 216 217 217 217 217 218
325 323 319 322 322 321 317 310 308 310 310 311 311 309 304 301 298 296 295 297 296 298 300 294 295 292 286 271 268 272 276 273 268 263 267 266 262 256 254 234 242 243 230 225 248 262 266 268 229 253 229 223 211 222 210 224 226 219 223 222 215 216 218 215 217 223 218 220 221 221 220 221 221 220 218 216 215 215 215 217 217 217 217 217 217
309 309 315 314 314 313 309 308 307 306 307 305 305 301 299 300 299 296 295 293 290 286 284 286 287 288 286 288 278 260 257 263 267 267 261 257 259 259 257 250 240 247 235 231 232 250 264 270 240 228 229 232 243 229 219 226 221 225 224 235 232 232 228 223 223 225 222 222 222 221 220 220 221 221 222 220 215 215 216 217 217 217 216 217 216
301 302 302 299 297 298 299 301 304 302 301 302 301 299 296 294 293 294 294 293 292 290 287 283 281 280 280 276 279 279 265 261 262 257 255 256 256 256 257 255 249 246 241 234 241 239 255 258 263 225 229 231 246 225 204 210 228 232 231 224 221 225 227 228 232 231 232 228 228 226 223 222 222 221 225 227 220 215 215 216 217 216 215 216 216
315 310 304 309 305 304 300 294 288 289 292 295 295 295 298 300 298 293 290 289 290 289 288 286 282 277 274 274 272 271 268 263 263 258 251 251 251 253 254 256 253 251 249 244 241 245 246 256 256 260 221 233 245 241 202 199 208 222 234 236 234 222 218 228 228 223 219 222 222 228 229 226 223 222 222 226 226 218 215 216 217 216 215 214 216
319 320 319 315 314 308 304 302 297 294 293 287 288 291 295 296 296 296 296 294 288 287 285 283 281 278 273 271 270 267 263 258 260 259 256 254 249 249 248 252 249 251 252 251 248 246 248 256 258 246 251 229 221 243 224 197 215 214 216 213 231 223 216 217 228 220 219 228 233 231 230 228 221 219 220 224 229 226 222 219 217 215 214 213 213
318 314 311 308 305 306 304 307 306 306 303 299 296 294 290 289 291 290 291 293 294 292 287 281 279 277 273 270 268 266 262 261 259 259 255 256 254 254 250 246 246 247 249 251 250 249 253 255 255 259 241 245 227 244 224 165 229 247 225 204 228 222 218 221 222 218 217 218 225 225 229 230 227 224 220 222 227 230 228 225 219 215 213 211 211
318 316 316 316 314 312 309 306 305 302 300 300 302 305 305 302 296 291 288 285 284 285 285 287 284 278 274 272 269 266 261 259 259 259 257 252 253 259 254 245 241 243 245 248 247 248 253 255 260 255 255 246 233 210 207 209 213 229 197 192 232 231 201 219 236 229 218 213 225 226 227 219 222 222 219 221 221 224 228 224 221 217 213 212 211
314 314 313 314 314 313 313 312 311 310 306 304 306 307 306 303 302 301 298 295 291 286 284 282 280 279 279 276 270 266 266 264 263 262 261 260 255 250 254 251 244 244 240 243 244 244 248 253 253 256 253 250 244 221 219 222 222 222 201 205 229 222 162 229 242 223 207 207 213 225 228 214 216 226 222 225 222 212 217 218 218 215 213 212 211
314 312 315 314 311 315 317 315 312 310 308 309 311 310 309 307 306 306 302 297 293 290 286 282 281 281 277 276 276 273 268 266 266 265 263 261 260 258 256 253 248 243 245 242 241 238 242 246 252 251 251 255 250 234 223 221 204 203 215 211 222 214 213 215 239 220 182 187 215 231 243 214 209 223 222 224 220 208 212 214 218 217 214 213 212
322 320 317 314 317 320 316 314 308 306 306 310 311 310 307 306 305 303 300 296 293 289 286 282 280 280 281 280 277 276 273 271 270 268 264 264 264 262 262 261 259 252 244 239 242 243 235 242 247 246 247 248 257 244 229 212 209 205 215 213 213 215 219 224 234 237 167 175 190 212 240 210 204 227 233 228 221 212 212 209 216 220 218 214 213
322 320 321 321 319 322 319 314 312 310 311 314 313 309 306 304 303 300 294 290 287 285 284 284 283 282 282 280 279 273 269 270 270 269 269 268 265 265 265 264 261 259 256 249 244 242 240 242 243 251 241 248 254 249 229 217 186 212 206 218 216 220 222 229 234 233 151 175 179 214 233 220 187 218 231 228 219 212 213 211 214 218 221 220 217
317 314 316 317 317 319 319 316 310 311 310 315 312 311 311 310 308 303 297 294 288 284 283 280 279 279 279 280 280 279 276 274 271 272 274 272 272 269 265 262 261 260 258 256 255 251 245 243 241 247 248 238 247 251 238 191 199 214 208 221 212 220 219 229 233 230 169 178 188 197 239 221 193 208 230 232 212 215 220 212 213 216 219 221 222
314 312 314 315 313 313 314 313 308 306 308 312 313 313 314 310 305 302 292 288 286 285 284 283 284 285 285 283 283 282 283 279 277 281 280 277 275 271 267 263 259 259 256 255 252 252 250 246 244 246 250 248 244 247 243 201 214 219 211 215 210 216 223 233 245 231 203 197 193 188 234 232 167 202 231 226 200 215 223 213 215 217 219 219 222
297 298 298 298 303 307 308 306 302 299 304 312 311 310 309 307 305 302 295 287 281 278 278 281 282 282 281 279 278 276 273 271 273 274 271 269 267 265 265 264 262 257 254 247 247 246 248 249 248 249 250 250 244 238 239 226 221 229 227 234 224 220 221 229 236 223 225 193 197 198 230 241 162 200 232 212 187 219 221 211 218 219 219 219 221
300 302 297 298 303 301 302 299 299 296 299 308 308 307 306 305 305 297 293 290 288 284 280 277 275 274 274 276 278 282 284 285 286 287 290 291 291 285 278 271 266 262 258 255 252 250 248 247 249 248 249 251 250 245 239 231 225 211 215 216 223 204 219 229 238 229 228 179 203 204 220 240 184 199 224 170 194 217 219 210 215 218 220 221 221
300 298 299 299 295 294 296 296 294 296 298 304 306 306 304 302 301 298 295 290 288 289 292 291 292 291 287 286 284 282 280 279 281 280 280 282 281 280 280 279 278 274 271 268 263 255 250 250 249 251 253 253 252 251 244 239 236 226 211 225 220 209 224 221 237 231 231 205 199 194 209 232 194 179 193 169 195 233 224 216 210 212 220 225 224
290 298 298 296 294 291 286 288 296 298 295 299 303 304 301 301 301 293 292 287 288 289 291 290 288 290 292 294 294 293 290 286 284 282 280 277 273 275 277 276 273 268 262 262 263 265 262 257 253 252 253 254 254 251 247 243 240 233 224 227 221 220 222 226 234 239 245 228 207 182 206 225 221 192 174 127 226 251 217 210 205 206 207 214 221